Torna al catalogo

DELTA 1 DEB

AttivoLEO
NORAD 10844·DEBRIS·🇺🇸 United States

Lanciato Jul 29, 1976 da Vandenberg Space Force Base

Loading…

Prossimi Passaggi (prossime 24 ore)

TLE

AggiornatoSource: Space-Track

Epoca: Sep 14, 2026, 10:08 UTC

1 10844U 76077CQ  26257.42246921 -.00002720  00000-0 -25212-2 0  9993
2 10844 101.2173 324.8409 0113163  17.0932  46.9334 13.78146871423241

Traccia DELTA 1 DEB in tempo reale con AllMySat

Download on the App Store